Regional Weather Roundup
Issued by NWS

Home | Current Version | Previous Version | Text Only | Print | Product List | Glossary Off
Versions: 1 2 3 4 5 6 7 8 9 10 11 12 13 14 15 16 17 18 19 20 21 22 23 24 25 26 27 28 29 30 31 32 33 34 35 36 37 38 39 40 41 42 43 44 45 46 47 48 49 50

000
ASUS43 KTOP 281159
RWRKS

WEATHER ROUNDUP FOR KANSAS
NATIONAL WEATHER SERVICE GOODLAND KS
600 AM CST WED JAN 28 2015

NOTE:  "FAIR" INDICATES FEW OR NO CLOUDS BELOW 12,000 FEET WITH NO
SIGNIFICANT WEATHER AND/OR OBSTRUCTIONS TO VISIBILITY.

KSZ001>006-013>018-027>032-041>047-281300-
NORTHWEST KANSAS

CITY           SKY/WX    TMP DP  RH WIND       PRES   REMARKS
GOODLAND       PTCLDY    41  29  62 NW14      29.91R
6HR MIN TEMP:  30; 6HR MAX TEMP:  48;

HAYS           CLEAR     41  28  60 SW8       29.83S
HILL CITY      CLEAR     35  28  75 W6        29.82S
6HR MIN TEMP:  35; 6HR MAX TEMP:  44;

RUSSELL        CLEAR     41  33  73 S13       29.80F
6HR MIN TEMP:  39; 6HR MAX TEMP:  50;

$$

KSZ061>065-074>080-084>089-281300-
SOUTHWEST KANSAS

CITY           SKY/WX    TMP DP  RH WIND       PRES   REMARKS
DODGE CITY     CLEAR     44  33  65 SW13      29.86F
6HR MIN TEMP:  44; 6HR MAX TEMP:  51;

ELKHART          N/A     46  31  56 W12         N/A
GARDEN CITY    PTCLDY    36  32  85 SW7       29.86S
6HR MIN TEMP:  36; 6HR MAX TEMP:  46;

LIBERAL        PTCLDY    37  30  75 SW8       29.92S
$$

KSZ066>073-081>083-090>101-281300-
SOUTHEAST KANSAS

CITY           SKY/WX    TMP DP  RH WIND       PRES   REMARKS
CHANUTE        CLEAR     47  36  65 S14       29.98S
6HR MIN TEMP:  40; 6HR MAX TEMP:  47;

COFFEYVILLE    CLEAR     43  35  73 S8        29.99S
6HR MIN TEMP:  40; 6HR MAX TEMP:  45;

HUTCHINSON     CLEAR     40  32  73 SE6       29.88F
6HR MIN TEMP:  36; 6HR MAX TEMP:  45;

MEDICINE LODGE   N/A     45  34  65 VRB3      29.89F
NEWTON         CLEAR     46  32  57 S10       29.91F
PARSONS        CLEAR     45  35  68 S3        30.00S
6HR MIN TEMP:  43; 6HR MAX TEMP:  50;

WICHITA INTL   CLEAR     39  32  76 S8        29.91F
6HR MIN TEMP:  38; 6HR MAX TEMP:  47;

WICHITA JABRA  CLEAR     44  35  70 S7        29.91F
6HR MIN TEMP:  43; 6HR MAX TEMP:  57;

WINFIELD       CLEAR     52  30  43 S12       29.94F
6HR MIN TEMP:  46; 6HR MAX TEMP:  52;

$$

KSZ007>012-019>026-033>040-048>060-102>105-281300-
NORTHEAST KANSAS

CITY           SKY/WX    TMP DP  RH WIND       PRES   REMARKS
CONCORDIA      PTCLDY    39  32  76 S3        29.83F
6HR MIN TEMP:  34; 6HR MAX TEMP:  45;

EMPORIA        CLEAR     40  34  79 S18       29.91S WCI  31
6HR MIN TEMP:  37; 6HR MAX TEMP:  43;

LAWRENCE       CLEAR     35  28  75 E8        29.94S
6HR MIN TEMP:  33; 6HR MAX TEMP:  41;

MANHATTAN      CLEAR     32  30  92 CALM      29.89S
6HR MIN TEMP:  31; 6HR MAX TEMP:  45;

OLATHE IND     CLEAR     42  30  62 S14       29.95S
6HR MIN TEMP:  41; 6HR MAX TEMP:  44;

OLATHE EXE     CLEAR     39  30  70 S10       29.95S WCI  32
6HR MIN TEMP:  39; 6HR MAX TEMP:  43;

SALINA         CLEAR     40  31  70 S7        29.86S
6HR MIN TEMP:  39; 6HR MAX TEMP:  49;

TOPEKA BILLARD CLEAR     35  29  78 E5        29.93S
6HR MIN TEMP:  35; 6HR MAX TEMP:  43;

TOPEKA FORBES  CLEAR     39  30  70 S8        29.92S
6HR MIN TEMP:  37; 6HR MAX TEMP:  44;

$$



USA.gov is the U.S. government's official web portal to all federal, state and local government web resources and services.